Location: Ferintosh
(52.7647°N, 112.9692°W)
Time: 15:48:21
(UTC+00:00)

Tiros 1 despin weight - Pass Details

Date: 27 May 2024
Orbit: 577 x 621 km, 48.2° (Epoch: 19 June)

Event Time Altitude Azimuth Distance (km) Brightness Sun altitude
Rises 09:13:07 0° 265° (W) 2,814 ? -12.5°
Reaches altitude 10° 09:15:29 10° 259° (W) 1,906 ? -12.3°
Maximum altitude 09:19:38 44° 187° (S) 805 ? -12.0°
Drops below altitude 10° 09:23:44 10° 115° (ESE) 1,889 ? -11.8°
Sets 09:26:04 0° 109° (ESE) 2,784 ? -11.6°
